{"data":{"norad_id":28129,"epoch":"2026-09-18T23:38:01.069440Z","epoch_age_seconds":149031,"freshness":"FRESH","line1":"1 28129U 03058A   26261.98473460 -.00000091  00000+0  00000+0 0  9995","line2":"2 28129  55.0787  19.8030 0000965 279.5326  80.4676  1.92678577166276","mean_motion":1.92678577,"eccentricity":9.65e-5,"inclination_deg":55.0787,"raan_deg":19.803,"arg_perigee_deg":279.5326,"mean_anomaly_deg":80.4676,"bstar":0,"rev_number":16627,"period_min":747.35864382058,"perigee_km":20899.347001377,"apogee_km":20904.612063868,"semimajor_km":27280.116532623,"source":"CELESTRAK","updated_at":"2026-09-20T09:00:13.594685Z"}}